Погода в Ключи

Погода в Ключи : погода сейчас, прогноз погоды и архив. Всё, что Вы хотите узнать о погоде в Ключи!

Хотите узнать прогноз погоды в Ключи? Тогда Вам сюда: Погода в Ключи

Поиск расширенной информации на нашем сайте:

Другие новости

Новости СМИ2

Главная страница сайта

Новости сайта

03.07.2017

Напоминаем, что на нашем специализированном сайте Метеоцентр.Азия вы можете получить высокодетализированные автоматические прогнозы погоды по пунктам России, СНГ и мира в авиационном формате (включающие направление и скорость ветра, видимость, явления погоды, количество и форму облачности, нижнюю и верхнюю границу облачности).

Рекомендуем: доставка бытовок

Погода в Ключи - сегодня

Время (UTC), дата Ветер
(°,м/с) 
Видим.   Явления Облачность Т
(°С)
Тd
(°С)
f(%) Тe
(°С)
Pmin
(гПа)
dP
(гПа)
Po
(мм)
O2
(г/м3)
Тmin Tmax R s Состояние
почвы
18 21.07.17 090 (В) 4000 м  дымка  10/10 270 м 
[St]
+11.5 +9.2 86 +11  1011.2  -1.2  756  291           
21 21.07.17 090 (В) 4000 м  слаб. ливневой дождь  10/10 360 м кучево-дожд. 
[Cb cap]
+12.1 +10.1 88 +13  1009.1  -2.1  754  289  +11.4    0.4    влажная 
00 22.07.17 110 (В) 4000 м  слаб. дождь{ливн. осадки}  10/10 330 м 
[Frnb|Ns]
+12.9 +11 88 +14  1006.8  -2.3  752  287           
06 22.07.17 110 (В) 4000 м  дымка{дождь}  10/10 330 м 
[St]
+14.2 +11.2 82 +18  1002.9  -1.4  750  285           
09 22.07.17 090 (В) 20000 м    9/5 1000 м средняя 
[Sc|Ac trans]
+13.8 +11.3 85 +18  1003  -0.1  750  285    +14.7     
12 22.07.17 080 (В) 20000 м    9/5 1000 м средняя 
[Sc|Ac trans]
+13.6 +11.5 87 +17  1004  750  286           
15 22.07.17 170 (Ю) 20000 м    10/4 1000 м средняя 
[Sc|Ac As]
+13 +11.4 90 +17  1004.3  0.3  751  287           
18 22.07.17 130 (ЮВ) 20000 м    8/3 1000 м средняя, верхняя 
[Sc|Ac trans|Ci fib]
+11.3 +10.2 93 +13  1005.2  0.3  751  289           
00 23.07.17 320 (СЗ) 20000 м    5/1 1000 м средняя, верхняя 
[Cu hum|Ac trans|Ci fib]
+21.2 +13.8 63 +28  1005.6  0.2  752  278           
03 23.07.17 200 (Ю) 20000 м    9/5 1000 м средняя, верхняя 
[Cu Sc|Ac trans|Ci fib]
+23.8 +14.3 55 +31  1005.2  -0.3  751  276           
06 23.07.17 300 (СЗ) 20000 м    9/5 1000 м средняя, верхняя 
[Cu Sc|Ac trans|Ci fib]
+22.5 +14 59 +29  1006  0.8  752  277           
12 23.07.17 тихо ()   20000 м    9/6 1000 м средняя 
[Sc|Ac trans]
+16.5 +11.9 74 +20  1010.2  1.7  755  285           
15 23.07.17 120 (ЮВ) 20000 м    10/8 1000 м средняя 
[Sc|Ac As]
+15.8 +11.2 74 +20  1010.8  0.6  756  286           
18 23.07.17 240 (ЮЗ) 20000 м    9/1 1000 м средняя, верхняя 
[Sc|Ac trans|Ci fib]
+12.7 +10.8 88 +15  1011.6  0.7  756  289           
00 24.07.17 300 (СЗ) 20000 м    8/1 1000 м верхняя 
[Sc|Ci fib]
+20.3 +11.4 57 +23  1011.1  -0.6  756  281           
03 24.07.17 060 (СВ) 20000 м    4/1 1000 м средняя, верхняя 
[Sc|Ac trans|Ci fib]
+24.2 +10.6 42 +26  1010.5  -0.5  755  278           
06 24.07.17 090 (В) 20000 м    4/1 1000 м средняя, верхняя 
[Sc|Ac trans|Ci fib]
+25 +11.8 44 +28  1010.1  -0.4  755  277           
12 24.07.17 120 (ЮВ) 20000 м    9/0 верхняя 
[Ci fib]
+17.7 +15 84 +27  1012.5  1.1  757  283           
15 24.07.17 110 (В) 20000 м    9/0 верхняя 
[Ci fib]
+17.7 +14.1 79 +25  1012.4  -0.2  757  283           
18 24.07.17 150 (ЮВ) 20000 м    9/4 1000 м средняя, верхняя 
[Sc|Ac trans|Ci fib]
+16.4 +13.6 83 +23  1012.5  0.1  757  285           
00 25.07.17 290 (З) 4000 м  слаб. ливневой дождь  10/10 360 м кучево-дожд. 
[Cb cap]
+16.9 +15.2 90 +27  1012.4  -0.4  757  284           
06 25.07.17 110 (В) 4000 м  слаб. ливневой дождь{морось}  10/10 400 м кучево-дожд. 
[Cb cap]
+18.6 +15.4 82 +28  1011.2  -0.9  756  282           
09 25.07.17 130 (ЮВ) 4000 м  дымка{ливн. осадки}  10/10 360 м 
[St]
+16.7 +13.7 82 +23  1010.2  -1  755  284    +19.3     
12 25.07.17 100 (В) 4000 м  дымка{ливн. осадки}  10/10 400 м 
[St]
+15.6 +13.3 86 +22  1010.9  0.7  756  285           
18 25.07.17 160 (Ю) 4000 м  дымка{ливн. осадки}  10/10 400 м 
[St]
+14.9 +12.9 88 +21  1010.7  -0.8  755  286           
Время (UTC), дата Ветер
(°,м/с) 
Видим.   Явления Облачность Т
(°С)
Тd
(°С)
f(%) Тe
(°С)
Pmin
(гПа)
dP
(гПа)
Po
(мм)
O2
(г/м3)
Тmin Tmax R s Состояние
почвы

Для получения пояснительной информации подведите курсор к названию столбца.

ПОГОДА в Ключи - архив

Всё, что Вы хотите узнать о погоде в Ключи - удобно и подробно!

Выберите нужную дату (начиная с 1 января 2015* года) и нажмите кнопку "Найти".
Будут отображены архивные сводки погоды по пункту Ключи, начиная с указанной даты.


Отображать данные в формате CSV (для использования в таблицах Excel)


Внимание! Наш архив погоды предназначен исключительно для личного некоммерческого использования в познавательных целях. Если Вам необходимы официальные справки о состоянии погоды (для производственных, юридических, коммерческих и т.п. целей), обращайтесь в органы Росгидромета.

*Примечание: данная дата относится к архиву по метеостанциям СССР (Россия, СНГ, Балтия).
Архив по метеостанциям Зарубежной Европы и Азии (кроме Китая) хранится 10 дней, по другим регионам земного шара (Китай, Африка, Америка, Австралия, Океания) - 1 день.

Ключи - район местоположения метеостанции


Название, широта, долгота, высота метеостанции:
Ключи 56.3°ш. 160.8°д. 29 м над ур. моря [Российская Федерация]

Дополнительная информация

В oтличие oт бoльшинства пoгoдных сайтoв мы публикуем пoдрoбную метеoинфoрмацию в детальнoм прoфессиoнальнoм фoрмате.

Характеристики температуры и влажнoсти вoздуха измеряются на высoте 2 м в тени вдали oт зданий и деревьев.
Скoрoсть ветра измеряется на высoте 10 м (на урoвне рoста челoвека скoрoсть ветра ниже в 1.5-2 раза). Если метеoстанция нахoдится в гoрoде или в лесу, тo скoрoсть ветра занижена на 2-4 м/с пo сравнению с oткрытым местoм. Скoрoсть ветра над акватoриями крупных рек и oзёр, а также на вершинах хoлмoв на 2-5 м/с выше, чем в oбычных услoвиях.
Атмoсфернoе давление в разных тoчках местнoсти мoжет значительнo oтличаться oт давления на метеoстанции, в зависимoсти oт услoвий рельефа (при пoдъёме на 10 м давление пoнижается примернo на 1 мм рт.ст.).